Location: ????????
(37.9452°N, 23.1472°E)
Time: 20:14:27
(UTC+00:00)

Terra - Visible Passes

Search period start: 18 July 2024 00:00
Search period end: 28 July 2024 00:00
Orbit: 693 x 694 km, 98.0° (Epoch: 18 July)

Date Brightness Start Highest point End Pass type
(mag) Time Alt. Az. Time Alt. Az. Time Alt. Az.
18 Jul 1.7 19:36:46 34° SSE 19:38:49 74° ENE 19:43:32 10° N visible
19 Jul 3.4 18:38:34 11° ESE 18:41:37 19° ENE 18:44:54 10° NNE visible
19 Jul 2.7 20:17:16 31° SW 20:18:51 41° W 20:23:19 10° NNW visible
20 Jul 2.2 19:19:05 27° SE 19:21:18 47° ENE 19:25:50 10° N visible
20 Jul 4.0 20:57:47 14° WSW 20:59:06 16° W 21:01:56 10° NW visible
21 Jul 3.8 18:22:08 10° E 18:24:13 13° ENE 18:26:20 10° NE visible
21 Jul 2.0 19:59:35 38° SSW 20:01:14 64° W 20:05:56 10° NNW visible
22 Jul 2.8 19:01:23 20° ESE 19:03:49 31° ENE 19:07:58 10° N visible
22 Jul 3.5 20:40:05 21° WSW 20:41:23 24° W 20:45:11 10° NW visible
23 Jul 1.7 19:41:54 39° SSE 19:43:38 83° ENE 19:48:22 10° N visible
24 Jul 3.3 18:43:41 14° ESE 18:46:22 21° ENE 18:49:55 10° NNE visible
24 Jul 2.9 20:22:24 30° SW 20:23:41 36° W 20:28:03 10° NNW visible
25 Jul 2.0 19:24:12 32° SE 19:26:06 54° ENE 19:30:42 10° N visible
25 Jul 4.2 21:02:54 13° WSW 21:03:58 14° W 21:06:21 10° WNW visible
26 Jul 3.7 18:26:26 10° E 18:28:57 15° ENE 18:31:30 10° NNE visible
26 Jul 2.2 20:04:42 41° SSW 20:06:02 56° W 20:10:42 10° NNW visible
27 Jul 2.6 19:06:30 24° ESE 19:08:34 35° ENE 19:12:52 10° N visible
27 Jul 3.7 20:45:12 20° WSW 20:46:12 21° W 20:49:47 10° NW visible
